Location: Le Castellard
(44.1862°N, 6.1301°E)
Time: 16:35:48
(UTC+00:00)

Cosmos 1825 Rocket - Pass Details

Date: 18 January 2020
Orbit: 604 x 631 km, 82.5° (Epoch: 19 February)

Event Time Altitude Azimuth Distance (km) Brightness Sun altitude
Exits shadow 06:00:02 - 344° (NNW) 2,832 6.6 -11.8°
Reaches altitude 10° 06:02:15 10° 337° (NNW) 1,960 5.8 -11.4°
Maximum altitude 06:06:19 41° 268° (W) 884 3.9 -10.7°
Drops below altitude 10° 06:10:22 10° 198° (SSW) 1,951 6.1 -10.0°
Sets 06:12:39 0° 191° (S) 2,853 7.1 -9.6°
